Location: Hilton Head Island
(32.2163°N, 80.7526°W)
Time: 15:16:58
(UTC-05:00)

Courier 1B Rocket - Visible Passes

Search period start: 15 February 2026 00:00
Search period end: 25 February 2026 00:00
Orbit: 920 x 1201 km, 28.3° (Epoch: 15 February)

Date Brightness Start Highest point End Pass type
(mag) Time Alt. Az. Time Alt. Az. Time Alt. Az.
15 Feb 5.9 19:18:50 10° SW 19:24:15 31° SSE 19:27:16 21° ESE visible
15 Feb 6.6 21:10:59 10° WSW 21:13:37 26° WSW 21:13:37 26° WSW visible
16 Feb 5.2 20:10:03 10° WSW 20:16:06 50° SSE 20:16:18 49° SSE visible
17 Feb 5.6 19:09:13 10° SW 19:15:00 40° SSE 19:18:59 20° ESE visible
17 Feb 6.2 21:01:51 10° WSW 21:05:20 34° WSW 21:05:20 34° WSW visible
18 Feb 5.1 20:00:49 10° WSW 20:06:56 57° S 20:07:58 51° SE visible
18 Feb 7.6 21:53:52 10° W 21:54:20 12° W 21:54:20 12° W visible
19 Feb 5.4 18:59:50 10° WSW 19:05:48 49° SSE 19:10:37 16° E visible
19 Feb 5.8 20:52:45 10° W 20:56:58 42° WSW 20:56:58 42° WSW visible
20 Feb 5.1 19:51:40 10° WSW 19:57:48 61° S 19:59:35 44° ESE visible
20 Feb 7.3 21:44:52 10° W 21:45:57 15° W 21:45:57 15° W visible
21 Feb 5.2 18:50:35 10° WSW 18:56:40 57° S 19:02:13 13° E visible
21 Feb 5.5 20:43:42 10° W 20:48:34 49° SW 20:48:34 49° SW visible
22 Feb 5.1 19:42:33 10° W 19:48:41 61° S 19:51:12 36° ESE visible
22 Feb 7.1 21:35:55 10° W 21:37:33 18° WSW 21:37:33 18° WSW visible
23 Feb 5.2 18:41:23 10° WSW 18:47:33 61° S 18:53:43 10° E visible
23 Feb 5.4 20:34:41 10° W 20:40:12 49° SSW 20:40:12 49° SSW visible
24 Feb 5.2 19:33:28 10° W 19:39:34 57° S 19:42:52 27° ESE visible
24 Feb 6.9 21:27:04 10° W 21:29:13 20° WSW 21:29:13 20° WSW visible
